Fort Campbell, KY

10:28 AM CST on December 08, 2016 (GMT -0600)
Campbell Army Air Field

Weather History for KHOP - February, 2012

Change the Weather History Date:

Monday, February 27, 2012

  Actual Average Record
Temperature  
Mean Temperature 54 °F -  
Max Temperature 65 °F 51 °F 69 °F (2011)
Min Temperature 40 °F 32 °F 13 °F (2015)
Degree Days  
Heating Degree Days 11    
Growing Degree Days 4 (Base 50)    
Moisture  
Dew Point 33 °F    
Average Humidity 47    
Maximum Humidity 63    
Minimum Humidity 34    
Precipitation  
Precipitation 0.00 in - - ()
Sea Level Pressure  
Sea Level Pressure 30.36 in    
Wind  
Wind Speed 7 mph (West)    
Max Wind Speed 13 mph    
Max Gust Speed -    
Visibility 10 miles    
Events      
Averages and records for this station are not official NWS values.
T = Trace of Precipitation, MM = Missing Value Source: NWS Daily Summary

Daily Weather History Graph

Daily Weather History Graph

Search for Another Location

Airport or City:

Trip Planner

Search our weather history database for the weather conditions in past years. The results will help you decide how hot, cold, wet, or windy it might be!

Date:

Astronomy

Feb. 27, 2012 Rise Set
Actual Time 6:23 AM CST 5:42 PM CST
Civil Twilight 5:57 AM CST 6:08 PM CST
Nautical Twilight 5:28 AM CST 6:38 PM CST
Astronomical Twilight 4:58 AM CST 7:08 PM CST
Moon 9:03 AM CST (2/27) 11:24 PM CST (2/27)
Length of Visible Light 12h 10m
Length of Day
11h 18m
Waxing Crescent, 29% of the Moon is Illuminated
Feb 27
Waxing Crescent
Feb 29
First Quarter
Mar 8
Full
Mar 14
Last Quarter
Mar 22
New

Hourly Weather History & Observations

Time (CST) Temp. Windchill Dew Point Humidity Pressure Visibility Wind Dir Wind Speed Gust Speed Precip Events Conditions
12:55 AM 49.1 °F - 25.9 °F 40% 30.27 in 10.0 mi SSW 6.9 mph - N/A   Overcast
1:55 AM 47.8 °F - 28.2 °F 47% 30.28 in 10.0 mi SW 4.6 mph - N/A   Overcast
2:55 AM 49.8 °F - 30.6 °F 48% 30.29 in 10.0 mi WSW 6.9 mph - N/A   Overcast
3:55 AM 48.2 °F - 31.3 °F 52% 30.30 in 10.0 mi SSW 9.2 mph - N/A   Overcast
4:55 AM 45.0 °F 40.6 °F 30.4 °F 57% 30.31 in 10.0 mi SSW 8.1 mph - N/A   Clear
5:55 AM 44.6 °F 40.2 °F 31.6 °F 60% 30.32 in 10.0 mi SSW 8.1 mph - N/A   Clear
6:55 AM 45.1 °F 40.3 °F 32.7 °F 62% 30.34 in 10.0 mi SSW 9.2 mph - N/A   Clear
7:55 AM 50.5 °F - 34.3 °F 54% 30.36 in 10.0 mi SW 11.5 mph - N/A   Clear
8:55 AM 55.4 °F - 36.5 °F 49% 30.37 in 10.0 mi SW 12.7 mph - N/A   Clear
9:55 AM 59.0 °F - 36.5 °F 43% 30.38 in 10.0 mi WSW 10.4 mph - N/A   Clear
10:55 AM 63.0 °F - 35.4 °F 36% 30.38 in 10.0 mi WNW 8.1 mph - N/A   Clear
11:55 AM 64.2 °F - 35.6 °F 35% 30.38 in 10.0 mi WNW 6.9 mph - N/A   Clear
12:55 PM 63.7 °F - 36.1 °F 36% 30.36 in 10.0 mi Variable 4.6 mph - N/A   Clear
1:55 PM 64.8 °F - 37.4 °F 36% 30.35 in 10.0 mi Variable 5.8 mph - N/A   Clear
2:55 PM 65.1 °F - 35.8 °F 34% 30.34 in 10.0 mi NNE 9.2 mph - N/A   Clear
3:55 PM 63.3 °F - 35.1 °F 35% 30.35 in 10.0 mi NE 8.1 mph - N/A   Clear
4:55 PM 60.1 °F - 34.9 °F 39% 30.36 in 10.0 mi Variable 4.6 mph - N/A   Partly Cloudy
5:55 PM 54.9 °F - 33.1 °F 44% 30.38 in 10.0 mi NNE 4.6 mph - N/A   Clear
6:55 PM 51.6 °F - 32.5 °F 48% 30.40 in 10.0 mi North 4.6 mph - N/A   Clear
7:55 PM 50.4 °F - 30.4 °F 46% 30.40 in 10.0 mi Variable 3.5 mph - N/A   Clear
8:55 PM 48.0 °F - 29.3 °F 48% 30.41 in 10.0 mi NNE 3.5 mph - N/A   Clear
9:55 PM 45.9 °F 42.9 °F 29.1 °F 52% 30.42 in 10.0 mi NE 5.8 mph - N/A   Clear
10:55 PM 43.5 °F 40.1 °F 29.7 °F 58% 30.40 in 10.0 mi NE 5.8 mph - N/A   Clear
11:55 PM 40.1 °F 36.9 °F 28.6 °F 63% 30.41 in 10.0 mi NE 4.6 mph - N/A   Clear